2023/09/26 00:00:00,14.1,20.3
2023/09/26 00:10:00,11.7,20.2
2023/09/26 00:20:00,16.2,20.2
2023/09/26 00:30:00,15.9,20.3
2023/09/26 00:40:00,15.8,20.4
2023/09/26 00:50:00,15.3,20.4
2023/09/26 01:00:00,15.7,20.4
2023/09/26 01:10:00,15.8,20.3
2023/09/26 01:20:00,15.2,20.3
2023/09/26 01:30:00,14.6,20.0
2023/09/26 01:40:00,15.0,20.4
2023/09/26 01:50:00,14.9,20.3
2023/09/26 02:00:00, 7.4,20.4
2023/09/26 02:10:00, 0.0,20.2
2023/09/26 02:20:00, 0.0,20.0
2023/09/26 02:30:00, 0.0,20.0
2023/09/26 02:40:00, 0.0,20.2
2023/09/26 02:50:00, 0.0,20.1
2023/09/26 03:00:00, 0.0,20.1
2023/09/26 03:10:00, 0.0,20.1
2023/09/26 03:20:00, 0.0,20.1
2023/09/26 03:30:00, 0.0,20.1
2023/09/26 03:40:00, 0.0,20.2
2023/09/26 03:50:00, 0.0,20.3
2023/09/26 04:00:00, 0.0,20.1
2023/09/26 04:10:00, 0.0,20.3
2023/09/26 04:20:00, 0.0,20.1
2023/09/26 04:30:00, 0.0,20.0
2023/09/26 04:40:00, 0.0,19.9
2023/09/26 04:50:00, 0.0,19.9
2023/09/26 05:00:00, 0.0,19.9
2023/09/26 05:10:00, 7.7,20.0
2023/09/26 05:20:00,---,20.1
2023/09/26 05:30:00,39.2,19.9
2023/09/26 05:40:00,39.1,20.1
2023/09/26 05:50:00,39.0,20.0
2023/09/26 06:00:00,39.1,20.3
2023/09/26 06:10:00,39.3,20.1
2023/09/26 06:20:00,39.7,19.9
2023/09/26 06:30:00,40.0,20.1
2023/09/26 06:40:00,51.1,20.5
2023/09/26 06:50:00, 0.0,20.4
2023/09/26 07:00:00, 0.0,20.5
2023/09/26 07:10:00, 0.0,20.7
2023/09/26 07:20:00, 0.0,20.8
2023/09/26 07:30:00, 0.0,21.2
2023/09/26 07:40:00, 0.0,21.2
2023/09/26 07:50:00, 0.0,21.4
2023/09/26 08:00:00, 0.0,21.4
2023/09/26 08:10:00, 0.0,21.5
2023/09/26 08:20:00, 0.0,21.7
2023/09/26 08:30:00, 0.0,21.9
2023/09/26 08:40:00, 0.0,22.5
2023/09/26 08:50:00, 0.0,22.6
2023/09/26 09:00:00, 0.8,22.9
2023/09/26 09:10:00, 0.1,23.2
2023/09/26 09:20:00, 0.4,23.9
2023/09/26 09:30:00, 4.3,23.6
2023/09/26 09:40:00, 5.7,23.8
2023/09/26 09:50:00, 8.1,24.2
2023/09/26 10:00:00, 3.4,24.5
2023/09/26 10:10:00, 3.4,24.9
2023/09/26 10:20:00, 8.2,24.8
2023/09/26 10:30:00, 3.6,25.3
2023/09/26 10:40:00, 2.0,25.7
2023/09/26 10:50:00, 2.7,25.6
2023/09/26 11:00:00, 4.2,25.5
2023/09/26 11:10:00, 1.0,26.3
2023/09/26 11:20:00, 0.9,26.5
2023/09/26 11:30:00, 3.5,26.2
2023/09/26 11:40:00, 6.3,25.4
2023/09/26 11:50:00, 6.7,25.1
2023/09/26 12:00:00,13.1,25.0
2023/09/26 12:10:00, 7.5,25.1
2023/09/26 12:20:00, 0.0,25.7
2023/09/26 12:30:00, 6.3,26.1
2023/09/26 12:40:00, 6.5,26.3
2023/09/26 12:50:00, 6.2,26.6
2023/09/26 13:00:00,10.9,26.4
2023/09/26 13:10:00,12.1,25.9
2023/09/26 13:20:00,12.9,25.6
2023/09/26 13:30:00,12.2,25.5
2023/09/26 13:40:00, 0.0,25.3
2023/09/26 13:50:00, 6.4,25.0
2023/09/26 14:00:00,13.8,25.5
2023/09/26 14:10:00,12.8,25.3
2023/09/26 14:20:00,10.2,25.4
2023/09/26 14:30:00,14.6,25.3
2023/09/26 14:40:00,14.2,25.3
2023/09/26 14:50:00,16.9,25.3
2023/09/26 15:00:00,17.8,25.3
2023/09/26 15:10:00,18.4,25.2
2023/09/26 15:20:00,18.9,25.0
2023/09/26 15:30:00,18.0,25.1
2023/09/26 15:40:00,19.0,24.6
2023/09/26 15:50:00,19.0,24.3
2023/09/26 16:00:00,36.8,23.6
2023/09/26 16:10:00,36.5,23.5
2023/09/26 16:20:00,36.7,23.4
2023/09/26 16:30:00,36.7,23.2
2023/09/26 16:40:00,37.0,23.0
2023/09/26 16:50:00,37.2,22.9
2023/09/26 17:00:00,37.4,22.6
2023/09/26 17:10:00,37.5,22.8
2023/09/26 17:20:00,37.6,22.5
2023/09/26 17:30:00,37.6,22.2
2023/09/26 17:40:00,37.5,22.2
2023/09/26 17:50:00,37.1,22.2
2023/09/26 18:00:00,36.6,21.8
2023/09/26 18:10:00,36.3,21.9
2023/09/26 18:20:00,35.7,21.8
2023/09/26 18:30:00,35.1,21.8
2023/09/26 18:40:00,34.7,21.7
2023/09/26 18:50:00,34.4,21.6
2023/09/26 19:00:00,34.3,21.5
2023/09/26 19:10:00,34.3,21.6
2023/09/26 19:20:00,34.2,21.4
2023/09/26 19:30:00,34.1,21.4
2023/09/26 19:40:00,33.7,21.4
2023/09/26 19:50:00,33.9,21.4
2023/09/26 20:00:00,33.9,21.4
2023/09/26 20:10:00,33.8,21.4
2023/09/26 20:20:00,34.1,21.4
2023/09/26 20:30:00,34.0,21.3
2023/09/26 20:40:00,33.9,21.2
2023/09/26 20:50:00,34.0,21.1
2023/09/26 21:00:00,34.0,21.3
2023/09/26 21:10:00,33.9,21.2
2023/09/26 21:20:00,34.0,21.2
2023/09/26 21:30:00,34.0,21.2
2023/09/26 21:40:00,34.1,21.2
2023/09/26 21:50:00,34.1,21.0
2023/09/26 22:00:00,34.1,21.0
2023/09/26 22:10:00,34.2,21.0
2023/09/26 22:20:00,34.3,21.1
2023/09/26 22:30:00,34.4,20.8
2023/09/26 22:40:00,34.3,21.1
2023/09/26 22:50:00,34.3,20.8
2023/09/26 23:00:00,34.5,20.9
2023/09/26 23:10:00,34.4,21.0
2023/09/26 23:20:00,34.6,21.1
2023/09/26 23:30:00,34.6,20.7
2023/09/26 23:40:00,34.7,20.9
2023/09/26 23:50:00,34.7,20.9
